Regional Weather Roundup
Issued by NWS Upton, NY

Current Version | Previous Version | Graphics & Text | Print | Product List | Glossary Off
Versions: 1 2 3 4 5 6 7 8 9 10 11 12 13 14 15 16 17 18 19 20 21 22 23 24 25 26

000
ASUS41 KOKX 241105
RWROKX

Regional Weather Roundup
National Weather Service New York NY
700 AM EDT THU MAY 24 2018

Note: "FAIR" indicates few or no clouds below 12,000 feet with no
significant weather and/or obstructions to visibility.

NYZ071-072-176-178-NJZ106-104-241200-
New York City Metro Area

CITY           SKY/WX    TMP DP  RH WIND       PRES   REMARKS
Central Park   FAIR      64  53  67 NW8       30.13R
Bronx Bot Gard   N/A     66  52  59 CALM      30.11R
Bronx Lehman C   N/A     64  52  63 NW5         N/A
LaGuardia Arpt FAIR      67  53  61 NW5       30.10R
Queens College   N/A     66  52  59 NW6         N/A
Kennedy Intl   FAIR      67  54  63 NW9       30.10R
Breezy Point     N/A     66 N/A N/A NW8G14      N/A
Brooklyn Coll    N/A     66  52  59 NW6         N/A
Staten Island    N/A     64  54  68 S1          N/A
Newark/Liberty FAIR      68  52  56 NW7       30.10R
Teterboro      FAIR      66  53  63 N6        30.09R
$$

NYZ177-179-078>081-241200-
Long Island New York

CITY           SKY/WX    TMP DP  RH WIND       PRES   REMARKS
Jones Beach      N/A     64 N/A N/A N8          N/A
Wantagh          N/A     64  52  63 NW7         N/A
Hempstead        N/A     66  54  63 NW3       30.12R
Matinecock Pt    N/A     66 N/A N/A CALM        N/A
Farmingdale    FAIR      65  51  60 NW5       30.09R
MacArthur/ISP  FAIR      65  52  62 NW12      30.08R
Stony Brook      N/A     63  52  67 NW3         N/A
Shirley        FAIR      64  54  69 NW6       30.08R
Mt Sinai Harb    N/A    N/A N/A N/A NW6         N/A
Westhampton    FAIR      61  54  77 N3        30.09R
East Hampton   FAIR      62  53  72 N6        30.06R
Southold         N/A     61  52  72 N8          N/A
Montauk          N/A     61  52  72 NE5       30.08R
$$

NYZ052-065-067-241200-
Hudson Valley

CITY           SKY/WX    TMP DP  RH WIND       PRES   REMARKS
White Plains   FAIR      62  51  67 N9        30.09R
Larchmont Harb   N/A     64 N/A N/A SE2         N/A
Croton On Huds   N/A     59 N/A N/A MISG        N/A
Somers           N/A     59  50  72 CALM        N/A
Brewster         N/A     59  48  67 N10         N/A
Newburgh       SUNNY     55  54  94 W6        30.12R
Montgomery     FAIR      58  53  84 CALM      30.11R
Otisville        N/A     55  54  94 SW3         N/A
Warwick          N/A     57  55  94 W1          N/A
Suffern          N/A     61  54  77 S1          N/A
Poughkeepsie   FAIR      54  51  90 CALM      30.10R
Albany         FAIR      58  49  72 W7        30.14R
$$

NJZ001-105-106-008-010-013-015-019>022-104-241200-
New Jersey

CITY           SKY/WX    TMP DP  RH WIND       PRES   REMARKS
Newark/Liberty FAIR      68  52  56 NW7       30.10R
Teterboro      FAIR      66  53  63 N6        30.09R
Caldwell       FAIR      60  56  86 CALM      30.13R
Somerville     FAIR      57  55  93 CALM      30.12R
Linden         NOT AVBL
Perth Amboy      N/A     64 N/A N/A NW3         N/A
Sussex         FAIR      53  53 100 SW3       30.14R
Andover          N/A     55  55 100 CALM      30.15R
Trenton        FAIR      64  51  62 NW5       30.12R
Millville      FAIR      64  55  72 N6        30.12R
Atlantic City  FAIR      64  56  75 N6        30.11R
Wrightstown    FAIR      64  53  68 NW6       30.09
Toms River     FAIR      63  54  72 NW7       30.12R
Belmar         FAIR      62  54  74 NW8       30.12R
$$

PAZ047>061-062-071-241200-
Eastern Pennsylvania

CITY           SKY/WX    TMP DP  RH WIND       PRES   REMARKS
Philadelphia   FAIR      65  53  65 NW7       30.14R
Allentown      FAIR      59  52  77 NW5       30.16R
Scranton       FAIR      54  52  93 CALM      30.19R
$$

CTZ002-004>006-009-010-012-RIZ004-006-007-MAZ004-011-015-241200-
Southern New England

 In CT

CITY           SKY/WX    TMP DP  RH WIND       PRES   REMARKS
Bradley Intl   FAIR      61  53  75 CALM      30.08R
Hartford       FAIR      58  55  90 CALM      30.08R
Danbury        FAIR      57  53  86 SW5       30.11R
Wtrbury/Oxford FAIR      61  50  67 N8        30.10R
Norwalk Harbor   N/A     59 N/A N/A W6          N/A
Bridgeport     FAIR      65  51  60 W5        30.09R
Meriden        FAIR      64  50  60 NW9       30.08R
New Haven      FAIR      67  51  56 N3        30.08R
Chester        FAIR      64  52  63 VRB6      30.08R
Groton         FAIR      61  54  77 N6        30.06R
Willimantic    FAIR      56  52  86 CALM      30.09R

 In RI

CITY           SKY/WX    TMP DP  RH WIND       PRES   REMARKS
Providence     FAIR      58  53  84 N6        30.07R
Block Island   FAIR      58  55  90 N6        30.07R
Westerly       FAIR      60  56  86 N7        30.07R

In MA

CITY           SKY/WX    TMP DP  RH WIND       PRES   REMARKS
Boston         FAIR      56  52  86 NE6       30.08R
Worcester      FAIR      57  44  62 NW10      30.08R
Westfield      FAIR      61  52  72 NE5       30.08R
Provincetown   FAIR      53  51  93 E6        30.09R
Nantucket      FAIR      54  52  93 SE9       30.04R
$$

ANZ330-335-338-340-345-350-353-355-241200-
Coastal Marine Observations


STATION/POSITION TIME  SKY/WX   TEMP    WIND        PRES    VSBY  WAVE
                                AIR SEA DIR/SP/G                  HT/PER
                 (UTC)          (F)     (DEG/KT/KT) (MB)    (MI)  (FT/S)
NY Harb Entrance 1050            61 58  310/  4/  6 1018.9          2/ 6
20 S Fire Island 1050            60 55  330/  8/  8 1018.4          2/ 6
23 SSW Montauk P 1050            57 55  350/  6/  8 1018.0          3/ 7
15 E Barnegat Li 1030               60                N/A           3/ 7
Hudson Canyon    1050            58 53  330/  8/ 10 1017.7          3/ 6
Kings Point      1030            65 58   60/  1/  3 1019.9
Execution Rocks  NOT AVBL
Western LI Sound NOT AVBL
Central LI Sound 1045            59     340/  6/  8   N/A           0
Robbins Reef     1030            67     330/  7/ 10 1019.6
$$


>>>>>>>>>>>>>>>>>>>>>>>>>>>> KEY <<<<<<<<<<<<<<<<<<<<<<<<<<<
>                                                          <
>     SKY/WX - Sky Condition/Present Weather               <
>     TMP    - Temperature in Fahrenheit                   <
>     DP     - Dew Point in Fahrenheit                     <
>     RH     - Relative Humidity in Percent                <
>     WIND   - Direction (from) and Speed in MPH           <
>     PRES   - Mean Sea Level Pressure (inches of Hg)      <
>     WCI    - Wind Chill Index                            <
>     VSB    - Visibility in Miles                         <
>     HX     - Heat Index                                  <
>     TC     - Temperature in Celsius                      <
>     VRB    - Varibale Wind Direction                     <
>                                                          <
>>>>>>>>>>>>>>>>>>>>>>>>>>>> KEY <<<<<<<<<<<<<<<<<<<<<<<<<<<




USA.gov is the U.S. government's official web portal to all federal, state and local government web resources and services.